#timestamp,LO_Frequency,Hit,StdDev 
1666926015.7,286047002.3,N
1666926035.6,286047003.0,N
1666926055.4,286047005.9,Y
1666926075.2,286047002.3,P
1666926095.1,286047000.9,N
1666926096.0,286047000.9,N
1666926115.8,286046999.1,N
1666926135.7,286047001.2,N
1666926155.5,286046999.4,N
1666926175.3,286046998.7,N
1666926195.2,286047000.9,N
1666926215.0,286047002.7,N
1666926215.9,286047002.7,N
1666926235.7,286047002.3,N
1666926255.6,286047001.8,N
1666926275.4,286047003.1,N
1666926295.3,286047002.8,N
1666926315.1,286047001.9,N
1666926316.0,286047001.9,N
1666926335.8,286047000.3,N
1666926355.7,286047001.5,N
1666926375.5,286047002.1,N
1666926395.4,286047002.6,N
1666926415.2,286046999.0,N
1666926435.0,286047000.2,N
1666926435.9,286047000.2,N
1666926455.8,286046996.6,N
1666926475.6,286046996.9,N
1666926495.4,286046999.5,N
1666926515.3,286046996.5,N
1666926535.1,286046997.2,N
1666926555.9,286046998.0,N
1666926575.7,286046997.6,N
1666926595.5,286046995.1,N
1666926615.4,286046999.2,N
1666926635.2,286046999.0,N
1666926655.0,286046998.8,N
1666926656.0,286046998.8,N
1666926675.8,286046999.3,N
1666926695.6,286047000.5,N
1666926715.5,286047000.6,N
1666926735.3,286047004.3,N
1666926755.1,286047004.0,N
1666926775.9,286047000.4,N
1666926795.7,286047002.6,N
1666926815.5,286046998.3,N
1666926835.4,286047000.8,N
1666926855.2,286047001.6,N
1666926875.1,286047002.0,N
1666926876.0,286047002.0,N
1666926895.8,286046999.2,N
1666926915.6,286046997.8,N
1666926935.5,286046998.3,N
1666926955.3,286047001.2,N
1666926975.1,286047002.2,N
1666926995.9,286046998.4,N
1666927015.7,286047000.8,N
1666927035.6,286046999.9,N
1666927055.4,286047001.6,N
1666927075.2,286047000.5,N
1666927095.1,286046997.4,N
1666927096.0,286046997.4,N
1666927115.8,286046998.8,N
1666927135.6,286047000.5,N
1666927155.5,286047000.3,N
1666927175.3,286047002.7,N
1666927195.2,286047001.2,N
1666927215.9,286047000.3,N
1666927235.7,286047001.6,N
1666927255.6,286047002.1,N
1666927275.4,286046998.6,N
1666927295.2,286046998.5,N
1666927315.1,286046999.2,N
1666927316.0,286046999.2,N
1666927335.8,286047001.2,N
1666927355.7,286047002.8,N
1666927375.5,286047004.0,N
1666927395.3,286047001.8,N
1666927415.2,286046999.8,N
1666927435.0,286047004.2,N
1666927435.9,286047004.2,N
1666927455.8,286047004.9,N
1666927475.6,286047006.5,Y
1666927495.4,286047007.0,P
1666927515.3,286047005.1,N
1666927535.1,286047001.3,N
1666927555.8,286046998.6,N
1666927575.7,286046998.6,N
1666927595.5,286047002.5,N
1666927615.4,286047005.5,N
1666927635.2,286047002.0,N
1666927655.0,286047003.1,N
1666927655.9,286047003.1,N
1666927675.8,286047004.2,N
1666927695.6,286047002.4,N
1666927715.4,286047002.5,N
1666927735.3,286047002.1,N
1666927755.1,286046998.5,N
1666927775.9,286047000.9,N
1666927795.7,286047000.6,N
1666927815.5,286047000.1,N
1666927835.4,286047001.3,N
1666927855.2,286047002.1,N
1666927875.0,286047003.6,N
1666927875.9,286047003.6,N
1666927895.8,286047003.1,N
1666927915.6,286047003.4,N
1666927935.5,286047005.1,N
1666927955.3,286047005.8,N
1666927975.1,286047005.5,N
1666927995.9,286047005.1,N
1666928015.7,286047005.9,N
1666928035.5,286047004.3,N
1666928055.4,286047003.6,N
1666928075.2,286047001.6,N
1666928095.1,286046999.7,N
1666928096.0,286046999.7,N
1666928115.8,286047003.1,N
1666928135.6,286047002.3,N
1666928155.5,286047004.0,N
1666928175.3,286047005.6,N
1666928195.1,286047001.5,N
1666928215.9,286047004.0,N
1666928235.7,286047002.2,N
1666928255.6,286047004.1,N
1666928275.4,286047002.5,N
1666928295.2,286047002.7,N
1666928315.1,286047000.2,N
1666928316.0,286047000.2,N
1666928335.8,286047000.0,N
1666928355.6,286046997.3,N
1666928375.5,286047000.8,N
1666928395.3,286047001.9,N
1666928415.2,286047005.9,N
1666928435.9,286047005.9,N
1666928455.7,286047004.4,N
1666928475.6,286047003.2,N
1666928495.4,286047003.6,N
1666928515.2,286047004.9,N
1666928535.1,286047004.7,N
1666928536.0,286047004.7,N
1666928555.8,286047006.4,N
1666928575.7,286047008.4,Y
1666928595.5,286047002.7,P
1666928615.3,286047000.4,P
1666928635.2,286047000.2,N
1666928655.0,286047001.5,N
1666928655.9,286047001.5,N
1666928675.7,286047002.3,N
1666928695.6,286046997.2,N
1666928715.4,286046998.8,N
1666928735.3,286046997.7,N
1666928755.1,286046998.9,N
1666928756.0,286046998.9,N
1666928775.8,286046998.5,N
1666928795.7,286046998.6,N
1666928815.5,286046999.0,N
1666928835.3,286046999.8,N
1666928855.2,286047000.5,N
1666928875.0,286046998.6,N
1666928875.9,286046998.6,N
1666928895.8,286046999.7,N
1666928915.6,286047000.5,N
1666928935.4,286047000.2,N
1666928955.3,286046996.5,N
1666928975.1,286046998.1,N
1666928995.8,286047001.2,N
1666929015.7,286046997.6,N
1666929035.5,286047000.8,N
1666929055.4,286046998.9,N
1666929075.2,286047000.8,N
1666929095.0,286047002.4,N
1666929095.9,286047002.4,N
1666929115.8,286046999.3,N
1666929135.6,286046999.8,N
1666929155.4,286047002.3,N
1666929175.3,286047001.2,N
1666929195.1,286047002.4,N
1666929215.9,286047004.4,N
1666929235.7,286047003.9,N
1666929255.5,286047001.4,N
1666929275.4,286047002.1,N
1666929295.2,286046998.2,N
1666929315.0,286046998.0,N
1666929316.0,286046998.0,N
1666929335.8,286046994.9,N
1666929355.6,286046996.8,N
1666929375.5,286046998.4,N
1666929395.3,286046997.1,N
1666929415.1,286046997.1,N
1666929435.9,286047001.2,N
1666929455.7,286046997.3,N
1666929475.6,286046999.5,N
1666929495.4,286046997.6,N
1666929515.2,286046996.0,N
1666929535.1,286046995.1,N
1666929536.0,286046995.1,N
1666929555.8,286046997.8,N
1666929575.6,286046998.7,N
1666929595.5,286046997.6,N
